Volver al catálogo

STARLINK-37038

ActivoComunicacionesSSO
NORAD 68226·PAYLOAD·🇺🇸 United States

Lanzado Mar 17, 2026 desde Vandenberg Space Force Base

Loading…

Próximos Pases (próximas 24 horas)

TLE

ActualizadoSource: CelesTrak SupGP

Época: Sep 14, 2026, 23:26 UTC

1 68226C 26053V   26257.97687500  .00070662  00000+0  21940-2 0  2579
2 68226  97.2849 131.8806 0001966  90.5153 142.6321 15.33395275    10

Sigue STARLINK-37038 en tiempo real con AllMySat

Download on the App Store